Location: Unspecified
(35.6961°N, 0.0000°E)
Time: 01:30:52
(UTC+00:00)

Altair - Pass Details

Date: 28 May 2019
Orbit: 1501 x 1683 km, 47.2° (Epoch: 23 June)

Event Time Altitude Azimuth Distance (km) Brightness Sun altitude
Rises 05:18:46 0° 282° (WNW) 4,922 9.6 5.0°
Reaches altitude 10° 05:22:12 10° 289° (WNW) 3,942 9.2 5.6°
Maximum altitude 05:31:45 43° 359° (N) 2,225 8.7 7.4°
Drops below altitude 10° 05:41:13 10° 68° (ENE) 3,908 13.8 9.2°
Sets 05:44:36 0° 76° (ENE) 4,876 12.4 9.9°
